Regional Weather Roundup
Issued by NWS Kansas City/Pleasant Hill, MO

Home | Current Version | Previous Version | Graphics & Text | Print | Product List | Glossary Off
Versions: 1 2 3 4 5 6 7 8 9 10 11 12 13 14 15 16 17 18 19 20 21 22 23 24 25 26 27 28 29 30 31 32 33 34 35 36 37 38 39 40 41 42 43 44 45 46 47 48 49 50

000
ASUS43 KEAX 081110
RWREAX

WEATHER ROUNDUP FOR EASTERN KANSAS AND NORTHWEST MISSOURI
NATIONAL WEATHER SERVICE KANSAS CITY/PLEASANT HILL MO
500 AM CST MON FEB 08 2016

KSZ040-057-103>105-MOZ028-029-037-043-081200-
...KANSAS CITY METROPOLITAN AREA...

CITY           SKY/WX    TMP DP  RH WIND       PRES   REMARKS
K.C. INTL      FLURRIES  33  22  63 NW16G22   29.97S WCI  23
K.C. DOWNTOWN  CLOUDY    35  21  56 NW13      29.98S WCI  26
LEES SUMMIT    CLOUDY    34  20  56 NW17G33   29.96F WCI  23
OLATHE - IXD   CLOUDY    34  20  56 NW13      30.00F WCI  25
OLATHE - OJC   CLOUDY    34  19  54 NW16G30   29.99S WCI  24
LAWRENCE       CLOUDY    35  19  52 NW24G36   30.02S WCI  23

$$

MOZ001>008-011>017-020>025-030>033-038>040-044>046-053-054-081200-
...NORTHERN AND CENTRAL MISSOURI...

CITY           SKY/WX    TMP DP  RH WIND       PRES   REMARKS
ST. JOSEPH     CLOUDY    33  18  53 NW31G44   29.99R WCI  19
MOSBY          CLOUDY    34  21  60 NW18G24   29.96F WCI  23
WARRENSBURG    CLOUDY    32  21  64 NW18G25   29.96F WCI  20
WHITEMAN AFB   CLOUDY    32  19  59 NW12G23   29.94R WCI  23
CLINTON          N/A     36  23  60 NW21G26   29.98S WCI  24
SEDALIA        CLOUDY    32  21  64 NW22G33   29.94R WCI  19
WARSAW         NOT AVBL
CHILLICOTHE      N/A     30  17  58 NW21G39   29.93S WCI  17
KIRKSVILLE     FLURRIES  25  13  60 NW26G35   29.85R WCI   9

$$

MOZ041-047>049-056>058-063>065-088>090-097-081200-
...EASTERN AND SOUTHERN MISSOURI...

CITY           SKY/WX    TMP DP  RH WIND       PRES   REMARKS
ST. LOUIS INTL CLOUDY    37  22  54 NW16G23   29.79R WCI  28
SPIRIT OF STL  CLOUDY    35  18  49 W18G26    29.80S WCI  24
COLUMBIA       CLOUDY    30  20  66 NW24G35   29.87R WCI  16
JEFFERSON CITY LGT SNOW  31  25  78 NW15G28   29.90R WCI  20
ROLLA          LGT SNOW  30  28  92 W16G26    29.83S VSB 1   WCI  19
OSAGE BEACH    CLOUDY    34  18  51 W18G32    29.90R WCI  23
SPRINGFIELD    CLOUDY    34  21  59 NW18G26   29.96S WCI  23
BRANSON        CLOUDY    36  19  51 NW16G28   29.97R WCI  26
JOPLIN         CLOUDY    36  20  52 W17       30.05F WCI  26
WEST PLAINS    MOCLDY    37  23  56 W20G32    29.87F WCI  27

$$

IAZ060-094-KSZ022-034>040-054-083-096-NEZ052-066-093-081200-
...KANSAS...SOUTHEAST NEBRASKA AND IOWA...

CITY           SKY/WX    TMP DP  RH WIND       PRES   REMARKS
TOPEKA         CLOUDY    36  16  44 NW18G26   30.04S WCI  26
MANHATTAN      CLOUDY    36  20  52 NW10G22   30.11S WCI  28
EMPORIA        PTCLDY    32  18  56 NW16G29   30.09S WCI  21
CHANUTE        PTCLDY    34  18  52 NW16G23   30.09S WCI  24
WICHITA        PTCLDY    33  18  53 NW17      30.18F WCI  22
OMAHA          FLURRIES  29  21  72 NW23G38   29.99S WCI  15
LINCOLN        CLOUDY    30  23  75 N18G26    30.06S WCI  18
FALLS CITY     CLOUDY    32  20  61 NW21G33   30.01R WCI  20
LAMONI         CLOUDY    22  13  68 NW25G32   29.91R WCI   5
DES MOINES     LGT SNOW  20  12  71 N24G40    29.87S BLWGSNOWWCI   3

$$




USA.gov is the U.S. government's official web portal to all federal, state and local government web resources and services.